Khon Kaen Airport
VTUK : now visible

Airfield :











YOU CAN JOIN US ON...

 
LOGIN :

Register | Disclaimer

   EN    FR    IT 

 









Legend :    VFR   Marginal VFR   IFR   Intensive IFR   Very Intensive IFR
Visi :
Ceiling :
>= 8 km
>= 3000ft
5 to 8 km
1000 to 3000 ft
1500m to 5 km
500 to 1000 ft
800 to 1500m
200 to 500 ft
< 800m
< 200 ft
Symbols :   Thunderstorms  Fog  Heavy snow  Heavy precipitations  Wind > 20 kt






- Airport Elevation : 670 ft
- IATA code : KKC


VTUK - Khon Kaen

CURRENT METAR :
  • 190400Z 20007KT 160V230 9999 FEW030 32/23 Q1007 NOSIG

EXPIRED METARs :
  • 190300Z 20006KT 160V250 9999 FEW030 SCT100 31/24 Q1008 NOSIG
  • 190200Z 22004KT 190V250 9999 FEW030 SCT100 30/23 Q1008 NOSIG
  • 190100Z 22005KT 190V260 9999 FEW030 SCT100 28/23 Q1008 NOSIG
  • 190000Z 21003KT 9999 SCT030 27/24 Q1007 NOSIG

TAF TAF VTUK
Valid from the 19 at 00:00 until the 20 at 00:00 UTC


182300Z 1900/1924 21005KT 9000 SCT030
TEMPO 1907/1913 VRB15KT 4000 TSRA FEW018CB BKN025
VTBB FIR / Asia



MET'MAP, your aeronautical weather chart ! - Copyright ORBIFLY December 2007 - Disclaimer

ORBIFLY MET'MAP TEAM :

Programming & Development : Alexandra Zaïnal
Original concept : Baudouin d'Aumeries
Technical & hardware support : Manuel Goepfert
Assistance : Marc-Olivier Méhu




SOURCES & CREDITS :

   NOAA       Earth
Advisory